Location: Colonia Mina de C?rbuni
(46.1667°N, 22.7167°E)
Time: 05:48:35
(UTC+00:00)

Vanguard 1 Rocket - Pass Details

Date: 22 April 2024
Orbit: 650 x 4220 km, 34.3° (Epoch: 26 May)

Event Time Altitude Azimuth Distance (km) Brightness Sun altitude
Rises 18:59:58 0° 253° (WSW) 3,324 10.8 -15.1°
Reaches altitude 10° 19:02:14 10° 242° (WSW) 2,606 10.1 -15.4°
Maximum altitude 19:07:40 33° 179° (S) 1,987 8.8 -16.1°
Enters shadow 19:12:08 22° 137° (SE) 2,963 9.4 -16.7°
